Location: Newark
(21.0333°N, 105.8500°E)
Time: 11:36:20
(UTC+00:00)

ISS - Visible Passes

Search period start: 12 December 2019 00:00
Search period end: 22 December 2019 00:00
Orbit: 411 x 421 km, 51.6° (Epoch: 13 December)

Date Brightness Start Highest point End Pass type
(mag) Time Alt. Az. Time Alt. Az. Time Alt. Az.
12 Dec -3.9 11:19:30 10° NNW 11:22:49 65° NE 11:25:14 17° SE visible
13 Dec -0.4 12:09:29 10° W 12:10:49 12° SW 12:12:09 10° SSW visible
14 Dec -1.3 11:19:39 10° WNW 11:22:27 25° SW 11:25:16 10° S visible
19 Dec -1.3 22:15:21 10° S 22:18:05 24° SE 22:20:50 10° ENE visible
20 Dec -0.4 21:28:29 10° SE 21:29:40 11° SE 21:30:50 10° ESE visible
21 Dec -3.9 22:16:01 28° SW 22:17:33 66° NW 22:20:50 10° NNE visible
